Location: Delta State University
(33.7460°N, 90.7320°W)
Time: 16:18:53
(UTC-06:00)

Iridium 13 - Visible Passes

Search period start: 21 December 2014 00:00
Search period end: 31 December 2014 00:00
Orbit: 776 x 779 km, 86.4° (Epoch: 21 December)

Date Brightness Start Highest point End Pass type
(mag) Time Alt. Az. Time Alt. Az. Time Alt. Az.
21 Dec 8.5 05:05:22 10° ENE 05:07:02 11° ENE 05:08:41 10° E visible
21 Dec 6.4 17:55:51 10° SE 18:00:10 27° E 18:04:30 10° NNE visible
21 Dec 7.4 19:36:24 10° SW 19:40:45 27° W 19:45:07 10° NNW visible
22 Dec 6.0 06:09:29 10° N 06:14:40 66° E 06:19:49 10° S visible
22 Dec 7.1 17:24:19 10° ESE 17:26:56 14° E 17:29:34 10° NE visible
22 Dec 6.3 19:02:03 10° SSW 19:07:06 52° W 19:12:11 10° N visible
23 Dec 7.3 05:36:21 10° NNE 05:41:03 33° E 05:45:43 10° SSE visible
23 Dec 5.4 18:28:23 10° S 18:33:34 80° E 18:38:47 10° N visible
24 Dec 8.2 05:03:53 10° NE 05:07:19 18° E 05:10:43 10° ESE visible
24 Dec 5.9 17:55:19 10° SSE 18:00:09 40° E 18:05:00 10° NNE visible
24 Dec 8.1 19:37:29 10° WSW 19:40:59 18° W 19:44:30 10° NW visible
25 Dec 5.5 06:09:32 10° N 06:14:45 83° W 06:19:56 10° S visible
25 Dec 6.7 17:23:01 10° SE 17:26:50 21° E 17:30:40 10° NE visible
25 Dec 7.1 19:02:33 10° SSW 19:07:15 34° W 19:11:59 10° NNW visible
26 Dec 6.4 05:36:09 10° N 05:41:13 50° E 05:46:14 10° SSE visible
26 Dec 5.8 18:28:29 10° S 18:33:39 68° W 18:38:51 10° N visible
27 Dec 7.6 05:03:14 10° NNE 05:07:33 26° E 05:11:50 10° SE visible
27 Dec 5.5 17:55:03 10° SSE 18:00:10 61° E 18:05:18 10° N visible
27 Dec 8.5 19:39:23 10° W 19:41:16 12° WNW 19:43:09 10° NW visible
28 Dec 8.4 04:31:17 10° NE 04:33:46 13° ENE 04:36:13 10° ESE visible
28 Dec 5.6 06:09:43 10° NNW 06:14:48 55° W 06:19:51 10° SSW visible
28 Dec 7.8 19:03:21 10° SW 19:07:27 23° W 19:11:35 10° NNW visible
29 Dec 5.7 05:36:06 10° N 05:41:19 76° E 05:46:31 10° S visible
29 Dec 6.6 18:28:49 10° SSW 18:33:46 45° W 18:38:46 10° NNW visible
30 Dec 6.9 05:02:53 10° NNE 05:07:44 38° E 05:12:33 10° SSE visible
30 Dec 5.5 17:55:01 10° S 18:00:13 88° W 18:05:27 10° N visible
